DW5367 Weather Reports


Display with metric or nautical units.
time (UTC)temp
F
wind
direction
speed
MPH
gust
MPH
rain 1hr
in
rain 24hr
in
rain mn
in
humidity
%
barometer
mb
20260507194526 60 275 1.0 6.0 0.00 0.13 0.06 66 1006.9
20260507193027 59 286 2.0 7.0 0.00 0.13 0.06 65 1007.3
20260507191523 59 301 2.0 4.0 0.01 0.13 0.06 65 1007.6
20260507190031 58 360 1.0 4.0 0.01 0.13 0.06 68 1007.6
20260507184512 57 360 0.0 3.0 0.01 0.13 0.06 70 1007.6
20260507183017 56 360 2.0 5.0 0.00 0.12 0.05 69 1007.7
20260507181618 54 360 2.0 4.0 0.00 0.12 0.05 74 1007.8
20260507180011 53 360 0.0 3.0 0.00 0.12 0.05 75 1008.1
20260507174509 53 360 1.0 5.0 0.00 0.12 0.05 77 1008.3
20260507173005 52 360 2.0 4.0 0.00 0.12 0.05 75 1008.4
20260507171507 50 360 0.0 3.0 0.00 0.12 0.05 77 1008.7
20260507170007 50 360 0.0 3.0 0.00 0.12 0.05 79 1008.9
20260507164509 49 360 1.0 4.0 0.00 0.12 0.05 80 1009.0
20260507163006 48 360 0.0 0.0 0.00 0.12 0.05 83 1009.2
20260507161503 47 360 0.0 3.0 0.00 0.12 0.05 84 1009.7
20260507160104 46 231 0.0 2.0 0.00 0.12 0.05 88 1009.7
20260507154602 46 231 0.0 2.0 0.00 0.12 0.05 89 1009.7
20260507153059 46 231 1.0 4.0 0.00 0.12 0.05 90 1009.4
20260507151558 45 227 1.0 3.0 0.00 0.12 0.05 92 1009.3
20260507150057 45 225 1.0 3.0 0.01 0.12 0.05 93 1009.7
20260507144559 45 223 0.0 1.0 0.01 0.12 0.05 96 1009.7
20260507143059 44 223 0.0 0.0 0.01 0.12 0.05 96 1010.0
20260507141602 44 218 0.0 0.0 0.01 0.12 0.05 97 1010.1
20260507140111 44 238 0.0 3.0 0.00 0.11 0.04 97 1010.1
20260507134552 44 238 0.0 4.0 0.00 0.13 0.04 97 1010.1
20260507133050 45 238 1.0 4.0 0.00 0.13 0.04 97 1010.0
20260507131601 45 241 1.0 4.0 0.00 0.13 0.04 97 1010.2
20260507130053 46 251 1.0 3.0 0.00 0.13 0.04 97 1010.4
20260507124557 46 263 0.0 0.0 0.00 0.16 0.04 97 1010.3
20260507123054 46 264 0.0 6.0 0.00 0.16 0.04 97 1009.9
20260507121546 46 274 0.0 6.0 0.00 0.16 0.04 97 1009.6
20260507120044 46 314 0.0 3.0 0.00 0.16 0.04 97 1009.6
20260507114544 46 316 0.0 2.0 0.00 0.16 0.04 96 1009.7
20260507113042 46 317 0.0 0.0 0.00 0.16 0.04 96 1009.4
20260507111540 46 317 0.0 0.0 0.01 0.16 0.04 97 1009.4
20260507110036 46 317 0.0 0.0 0.01 0.16 0.04 97 1009.0
20260507104539 45 317 0.0 0.0 0.01 0.16 0.04 97 1008.8
20260507103035 46 317 0.0 0.0 0.01 0.16 0.04 97 1009.1
20260507101539 46 317 0.0 0.0 0.00 0.15 0.03 97 1009.1
20260507100035 46 317 0.0 0.0 0.00 0.15 0.03 97 1008.9
20260507094531 46 317 0.0 0.0 0.00 0.15 0.03 98 1008.8
20260507093037 46 317 0.0 0.0 0.00 0.15 0.03 98 1008.7
20260507091529 46 317 0.0 0.0 0.00 0.15 0.03 98 1008.6
20260507090032 46 314 0.0 3.0 0.00 0.15 0.03 98 1008.6
20260507084527 46 315 0.0 3.0 0.00 0.15 0.03 97 1008.3
20260507083035 46 315 1.0 3.0 0.00 0.15 0.03 97 1008.2
20260507081528 46 333 2.0 4.0 0.01 0.15 0.03 97 1008.6
20260507080022 46 299 2.0 4.0 0.01 0.15 0.03 97 1008.4
20260507074526 47 254 0.0 5.0 0.01 0.15 0.03 98 1008.5
20260507073017 47 324 1.0 5.0 0.01 0.15 0.03 97 1008.0
20260507071513 48 336 0.0 4.0 0.00 0.14 0.02 97 1007.8
20260507070014 49 360 0.0 3.0 0.00 0.14 0.02 97 1007.8
20260507064511 49 360 0.0 4.0 0.00 0.14 0.02 97 1007.9
20260507063008 49 360 2.0 5.0 0.00 0.14 0.02 97 1008.1
20260507061608 50 360 0.0 4.0 0.01 0.14 0.02 97 1007.9
20260507060003 50 360 0.0 3.0 0.01 0.14 0.02 97 1008.4
20260507054609 50 360 0.0 0.0 0.01 0.14 0.02 97 1008.4
20260507053100 51 360 0.0 0.0 0.01 0.14 0.02 97 1008.1
20260507051559 52 360 0.0 5.0 0.00 0.13 0.01 97 1008.2
20260507044551 55 360 0.0 0.0 0.01 0.13 0.01 98 1007.7
20260507043049 54 360 0.0 0.0 0.01 0.13 0.01 97 1007.0
20260507041545 54 360 0.0 2.0 0.01 0.13 0.01 97 1007.6
20260507040053 55 360 0.0 3.0 0.00 0.12 0.00 97 1008.3
20260507034547 55 360 0.0 0.0 0.01 0.12 0.12 97 1008.1
20260507033043 56 360 0.0 0.0 0.01 0.12 0.12 97 1008.2
20260507031538 56 360 0.0 2.0 0.01 0.12 0.12 96 1008.3
20260507030038 58 360 0.0 4.0 0.01 0.12 0.12 97 1008.3
20260507024537 58 360 0.0 0.0 0.01 0.11 0.11 97 1007.7
20260507023038 58 360 1.0 4.0 0.01 0.11 0.11 97 1007.9
20260507021535 58 360 0.0 2.0 0.01 0.11 0.11 97 1007.7
20260507020035 59 360 0.0 3.0 0.02 0.11 0.11 96 1007.5
20260507014646 59 360 0.0 0.0 0.02 0.10 0.10 96 1007.5
20260507013145 59 360 0.0 0.0 0.02 0.10 0.10 96 1006.8
20260507011538 59 360 0.0 5.0 0.04 0.10 0.10 96 1007.2
20260507010032 60 360 1.0 4.0 0.04 0.09 0.09 95 1007.7
20260507004531 60 360 0.0 0.0 0.03 0.08 0.08 95 1007.6
20260507003031 60 360 0.0 3.0 0.03 0.08 0.08 94 1007.9
20260507001533 62 360 1.0 3.0 0.01 0.06 0.06 93 1007.7
20260507000029 63 360 0.0 5.0 0.00 0.05 0.05 90 1006.8
20260506234540 64 360 1.0 8.0 0.00 0.05 0.05 87 1006.8
20260506233029 64 205 2.0 5.0 0.00 0.05 0.05 85 1006.8
20260506231534 65 226 1.0 8.0 0.00 0.05 0.05 84 1006.6
20260506230027 65 201 1.0 5.0 0.00 0.05 0.05 84 1006.4
20260506224530 65 360 2.0 8.0 0.00 0.05 0.05 84 1006.4
20260506223026 65 360 1.0 6.0 0.00 0.05 0.05 83 1006.5
20260506221525 65 360 2.0 8.0 0.00 0.05 0.05 82 1006.5
20260506220026 66 360 2.0 9.0 0.00 0.05 0.05 82 1006.5
20260506214525 66 360 3.0 11.0 0.00 0.05 0.05 80 1006.3
20260506213024 67 360 3.0 10.0 0.00 0.05 0.05 80 1006.2
20260506211522 66 360 4.0 9.0 0.00 0.05 0.05 80 1006.3
20260506210023 66 360 2.0 11.0 0.00 0.05 0.05 82 1006.1
20260506204517 65 360 3.0 11.0 0.00 0.05 0.05 83 1006.0
20260506203016 65 360 2.0 12.0 0.00 0.05 0.05 83 1005.9
20260506201520 64 360 3.0 11.0 0.00 0.05 0.05 84 1005.9
20260506200017 64 360 2.0 11.0 0.00 0.05 0.05 84 1006.0